Temperature
25 25 24 24 22 21 23 24 24 24 23 23 23 23 22 21 20 18 18 19 19 19 19 19 19 19 18 18 18 18 18 18 18 18 18 18 18 18 18 18 18 18 18 18 18 17 17 17 17
25 25 24 23 22 21 23 24 24 24 24 23 23 22 22 21 19 18 18 19 19 19 19 19 19 19 19 18 18 18 18 18 18 18 18 18 18 18 18 18 18 18 18 18 18 17 18 17 17
25 25 24 21 22 22 23 25 25 25 24 24 23 22 22 21 20 19 19 19 20 19 19 19 19 19 19 19 18 18 18 18 18 18 18 18 18 18 18 18 18 18 18 18 17 17 17 17 17
25 24 24 22 23 24 25 25 25 25 24 24 23 22 21 21 20 20 20 20 20 19 19 19 19 19 19 19 19 18 18 18 18 18 18 18 18 18 18 18 18 18 18 18 17 17 17 17 17
26 25 22 22 24 25 26 26 25 25 24 23 22 21 21 21 21 20 20 20 20 20 19 19 19 19 19 19 19 18 18 18 18 18 18 18 18 18 18 18 18 18 18 18 17 17 17 17 17
26 24 22 22 25 26 26 26 25 24 23 22 22 21 21 21 20 20 20 20 20 20 19 19 19 19 19 19 19 18 18 18 18 18 18 18 18 18 18 18 18 18 18 18 18 18 17 17 17
26 23 23 24 25 25 26 26 25 24 23 23 22 21 21 21 20 20 20 20 20 20 19 19 19 19 19 19 19 18 18 18 18 18 18 18 18 18 18 18 18 18 18 18 18 18 17 17 17
28 23 24 24 25 25 26 26 26 25 24 23 23 21 21 21 21 20 20 20 20 19 19 19 19 19 19 19 19 18 18 18 18 18 18 18 18 18 18 18 18 18 18 18 18 18 17 17 17
28 23 23 24 24 25 26 26 26 25 24 24 23 22 22 21 21 20 20 20 19 19 19 19 19 19 19 19 18 18 18 18 18 18 18 18 18 18 18 18 18 18 18 18 18 17 17 17 17
28 24 25 26 26 25 27 26 26 25 24 23 23 22 22 21 21 21 20 20 19 19 19 19 19 19 19 19 18 18 18 18 18 18 18 18 18 18 18 18 18 18 18 18 18 17 17 17 17
28 26 27 28 28 27 27 26 26 24 23 23 22 22 22 21 21 21 20 20 20 19 19 19 19 19 19 18 18 18 18 18 18 18 18 18 18 18 18 18 18 18 18 18 18 17 17 17 17
28 28 29 28 28 27 27 26 25 24 24 24 23 22 22 22 21 21 21 20 20 19 19 19 19 19 19 18 18 18 18 18 18 18 18 18 18 18 18 18 18 18 18 18 18 18 18 18 17
28 28 29 28 28 28 27 26 25 24 24 24 23 22 22 22 21 21 21 20 20 20 19 19 19 19 19 18 18 18 18 18 18 18 18 18 18 18 18 18 18 18 18 18 18 18 18 18 18
28 29 28 28 28 28 26 26 25 24 24 24 23 23 22 22 22 21 21 20 20 20 19 19 19 19 19 18 18 18 18 18 18 18 18 18 18 18 18 18 18 18 18 18 18 18 18 18 18
29 27 27 27 28 27 26 25 25 25 24 24 23 23 22 22 22 21 21 21 20 20 19 19 19 19 18 18 18 18 18 18 18 18 18 18 18 18 18 18 18 18 18 18 18 18 18 18 18
27 26 25 26 27 27 25 24 25 25 25 24 23 23 22 22 22 22 21 21 20 20 19 19 19 19 19 18 18 18 18 18 18 18 18 18 18 18 18 18 18 18 18 18 18 18 18 18 18
25 25 25 26 27 27 25 24 25 25 25 24 23 23 22 22 22 22 21 21 20 20 20 19 19 19 19 18 18 18 18 18 18 18 18 18 18 18 18 18 18 18 18 18 18 18 18 18 18
25 25 26 26 27 27 25 24 25 25 25 24 24 23 22 22 22 22 21 21 20 20 20 19 19 19 19 18 18 18 18 18 18 18 18 18 18 18 18 18 18 18 18 18 18 18 18 18 17
27 26 26 26 27 26 25 24 25 25 25 24 24 23 23 22 22 22 21 21 21 20 20 20 19 19 19 19 18 18 18 18 18 18 18 18 18 18 18 18 18 18 18 18 18 18 18 17 17
28 27 26 27 27 26 25 25 25 25 25 25 24 23 23 22 22 22 21 21 21 20 20 20 19 19 19 19 19 18 18 18 18 18 18 18 18 18 18 18 18 18 18 18 18 18 17 17 17
28 27 26 26 26 26 25 24 24 25 25 25 24 24 23 23 23 22 21 21 21 21 20 20 20 19 19 19 19 18 18 18 18 18 18 18 18 18 18 18 18 18 18 18 17 17 18 18 17
27 29 28 27 25 23 24 22 23 23 23 24 24 23 23 23 23 22 22 21 21 21 21 20 20 20 19 19 19 19 19 19 18 18 18 18 18 18 18 18 18 18 18 18 17 17 17 17 17
28 29 28 27 24 23 23 22 22 22 22 23 23 24 23 24 23 23 22 22 22 21 21 21 20 20 20 19 19 19 19 19 19 18 18 18 18 18 18 18 18 18 18 18 17 17 17 17 17
29 28 26 23 22 22 23 22 22 21 22 23 24 24 24 24 24 23 23 22 22 21 21 21 21 20 20 19 19 19 19 19 19 18 18 18 18 18 18 18 18 18 18 18 17 17 17 17 17
28 24 23 23 21 22 22 22 22 23 23 24 24 24 24 24 24 23 23 22 22 22 22 21 21 21 20 20 20 20 19 19 19 19 18 18 18 18 18 18 18 18 17 17 17 17 17 17 17
27 24 23 24 22 22 22 22 23 24 24 25 25 25 25 24 24 24 24 23 23 22 22 22 21 21 21 20 20 20 20 19 19 19 18 18 18 18 18 18 18 18 17 17 17 17 17 17 17
27 25 23 22 22 21 21 22 23 24 24 24 24 24 24 24 25 25 24 24 24 23 23 22 22 21 21 21 20 20 20 19 19 19 18 18 18 18 18 18 18 18 17 17 17 17 17 17 17
27 25 22 22 22 22 22 22 22 23 23 23 23 23 24 24 24 24 24 24 24 23 23 22 22 22 21 21 21 20 20 20 19 19 19 19 18 18 18 18 18 17 17 17 17 17 17 17 17
27 26 22 20 21 21 21 22 23 23 23 22 23 23 24 24 24 24 24 24 24 23 23 23 22 22 22 21 21 20 20 20 19 19 19 19 19 18 18 18 17 17 17 17 17 17 17 17 17
27 25 22 22 22 20 21 22 24 23 23 23 23 23 24 24 24 24 24 24 24 23 23 23 22 22 22 21 21 21 20 20 20 19 19 19 19 18 18 18 17 17 17 17 17 16 16 16 16
Wind_Speed
10 7 3 1 4 5 7 6 9 10 8 10 12 11 10 8 6 8 4 10 11 8 9 12 13 12 12 12 12 13 13 14 15 15 15 16 17 17 17 17 17 17 18 18 18 17 17 17 18
7 5 1 3 5 6 6 7 12 13 13 14 14 14 11 9 10 11 7 10 11 10 10 11 13 13 12 12 13 13 13 14 15 15 15 16 16 16 17 17 17 17 17 17 16 16 16 16 17
6 3 3 4 4 6 6 8 13 14 12 11 8 8 6 7 9 8 10 13 10 9 11 12 13 13 13 12 12 12 13 14 15 15 15 15 15 16 16 16 16 16 16 16 15 15 15 15 15
3 2 4 5 6 5 7 9 13 13 11 10 10 8 6 6 6 11 15 14 11 8 10 12 13 13 13 12 12 13 13 14 14 15 15 15 15 15 15 15 15 15 15 14 14 14 14 13 13
3 4 6 5 6 6 8 12 13 11 6 10 12 10 7 6 14 18 16 14 12 8 9 12 13 13 13 12 13 13 13 14 14 14 14 14 14 14 14 14 14 14 14 14 13 13 12 12 11
3 4 6 5 7 6 8 11 13 15 14 13 12 9 5 8 13 15 15 13 11 10 9 11 13 13 13 12 13 13 13 13 13 13 13 13 13 14 14 13 13 13 13 13 12 11 10 10 9
5 5 6 7 8 8 8 9 11 13 13 9 9 7 5 7 11 13 14 13 10 10 9 8 10 12 12 12 12 12 12 12 12 13 12 12 13 13 13 13 12 12 12 11 10 10 9 8 8
5 5 5 6 7 6 8 7 9 12 10 12 9 7 7 8 10 13 12 11 10 8 7 7 8 9 10 11 11 11 12 12 12 12 11 11 12 12 12 11 11 11 11 10 9 9 8 7 7
4 6 5 7 7 7 10 11 8 9 11 7 5 8 11 12 12 12 10 8 8 9 7 6 6 7 9 9 10 10 10 10 10 10 10 9 8 9 9 10 10 10 9 9 8 8 7 6 5
5 6 8 8 9 9 11 13 9 8 12 10 11 11 13 12 12 12 11 9 8 8 7 6 6 6 7 7 8 7 7 7 7 7 7 7 7 7 7 9 9 9 8 7 7 6 5 3 2
6 8 7 7 9 10 10 9 6 10 10 13 16 14 12 12 10 10 9 8 8 8 8 7 7 7 6 5 6 5 5 6 6 7 8 7 6 5 5 5 5 6 6 4 4 3 3 3 2
7 8 9 8 9 11 10 8 7 9 10 13 15 15 12 12 10 9 9 7 7 7 7 7 7 6 6 6 5 5 4 4 4 6 8 7 4 4 4 3 4 4 4 4 4 3 3 3 4
8 6 8 9 8 10 11 10 9 9 13 14 15 14 12 11 10 9 8 8 8 7 7 7 7 6 5 4 3 4 4 4 5 5 6 7 4 3 3 3 3 4 4 4 3 3 2 2 3
6 8 8 8 8 9 13 10 8 11 14 15 14 12 11 11 11 9 9 8 7 7 7 6 6 6 5 4 3 2 3 4 4 4 5 7 6 5 3 2 2 3 4 4 4 3 3 3 2
5 8 6 4 6 7 11 6 9 14 14 14 14 13 11 10 11 11 10 9 8 7 6 6 6 5 5 4 3 3 4 5 3 3 5 6 7 6 4 2 2 2 3 3 3 2 2 2 2
5 6 3 3 4 6 9 6 9 14 15 13 13 13 10 9 10 10 10 8 8 7 7 6 6 6 5 4 3 3 3 4 3 4 4 6 6 6 5 2 2 2 3 3 2 2 2 1 1
4 2 2 2 3 5 6 5 8 11 14 13 12 12 11 10 9 9 10 9 9 8 7 6 6 6 5 4 3 3 3 3 3 3 3 5 5 6 5 3 2 3 3 2 2 2 2 2 1
3 3 3 4 4 4 4 6 10 12 13 13 12 12 11 11 10 10 9 9 9 8 7 6 5 5 5 3 3 2 2 1 2 3 3 5 4 5 5 3 2 3 2 1 1 2 1 2 1
6 4 4 4 5 4 5 6 9 11 12 12 12 12 12 11 9 9 9 9 8 7 6 6 6 5 4 3 3 2 1 1 1 1 4 5 5 5 4 3 2 2 2 2 2 2 2 1 1
5 5 4 2 3 4 3 4 7 10 12 13 15 14 13 11 9 9 9 9 9 8 7 6 6 5 5 4 3 3 3 2 2 1 2 4 5 5 4 3 3 2 2 2 2 2 2 1 2
2 7 8 5 2 3 4 3 1 3 4 7 12 13 13 15 14 12 11 9 9 9 8 8 6 6 5 4 3 2 2 1 1 1 1 2 4 4 4 4 3 2 3 2 2 2 3 2 1
4 7 9 9 6 1 3 2 4 3 3 6 8 10 12 12 12 12 12 11 10 10 9 7 7 6 5 5 5 5 4 3 3 2 2 2 2 3 4 4 4 3 2 3 3 2 2 3 2
6 6 6 7 7 3 2 4 5 1 3 7 9 11 12 12 13 13 13 13 11 10 9 7 7 6 5 5 6 5 3 3 2 2 2 2 1 2 3 4 3 3 3 3 3 2 2 3 3
2 5 6 6 5 2 3 4 5 4 6 7 8 9 11 13 13 12 12 11 9 9 9 8 7 6 6 6 6 6 6 5 4 3 2 1 0 1 2 3 2 2 2 2 2 2 3 2 2
4 7 4 4 4 3 2 2 7 7 6 8 9 10 11 13 13 13 12 12 11 11 10 9 9 7 6 6 6 6 6 6 6 4 3 2 1 1 1 2 2 1 2 2 2 2 2 2 2
3 9 7 5 4 3 1 3 7 6 5 6 6 8 11 12 13 14 14 14 13 12 11 10 9 8 7 7 6 5 5 4 4 4 4 3 3 2 2 2 2 1 1 2 2 2 1 1 1
4 4 8 7 3 2 2 5 7 3 0 3 5 7 10 13 13 14 14 14 13 12 12 11 11 9 8 8 7 6 5 5 5 4 3 2 2 2 2 2 2 1 2 2 2 1 1 1 1
7 7 6 6 5 1 2 4 5 5 3 4 5 6 8 10 11 12 12 13 12 12 11 10 11 10 9 8 7 6 5 5 5 4 4 3 3 2 3 2 2 2 2 2 2 1 1 1 1
1 3 5 6 7 7 3 6 6 9 8 7 6 6 7 9 9 10 10 11 11 10 10 10 10 9 8 9 7 6 5 5 5 5 4 4 3 3 3 3 3 3 2 2 2 2 1 1 1
6 6 7 6 4 5 5 6 5 7 6 7 7 7 7 8 8 9 10 10 10 11 11 11 10 10 9 8 8 7 6 6 6 5 4 4 4 3 3 3 3 3 2 2 3 2 2 2 1
Wind_Direction
160 162 160 70 51 60 82 91 97 85 69 69 76 80 80 68 93 119 150 140 135 126 118 111 107 104 101 99 98 98 97 97 101 104 105 106 106 106 107 109 111 113 116 117 117 116 117 119 119
161 163 108 55 75 81 78 92 90 97 112 103 83 81 76 74 92 116 135 144 134 128 123 116 112 107 104 102 103 102 102 103 105 107 108 108 109 111 111 110 110 113 116 118 118 119 121 122 122
163 156 89 69 88 113 108 102 103 101 102 98 90 72 72 101 112 130 150 144 130 124 123 122 117 112 108 105 105 106 107 108 111 111 111 111 111 110 112 113 114 114 116 119 120 121 123 125 123
136 80 56 75 94 113 118 116 109 105 82 81 92 76 70 100 117 137 142 139 130 126 128 126 120 116 112 108 108 108 111 112 114 114 114 115 114 112 113 114 116 118 120 122 123 123 123 125 126
96 85 67 80 97 102 108 109 109 105 89 90 94 100 93 98 120 134 139 139 134 133 134 130 125 121 117 114 114 113 115 115 115 115 115 116 116 115 115 115 117 120 124 125 124 123 123 122 127
75 76 86 101 104 97 103 111 107 105 112 107 104 104 107 125 127 139 141 140 141 141 139 135 133 128 124 121 121 120 118 118 119 120 120 118 118 118 118 118 120 121 124 125 125 125 124 121 122
114 103 123 124 107 106 118 119 116 125 127 127 124 105 123 132 134 137 139 140 142 142 139 137 138 136 132 129 125 126 127 127 127 127 125 124 123 122 122 123 123 125 127 128 128 129 128 123 119
149 110 102 109 115 121 126 111 121 126 122 133 130 127 151 156 132 126 129 133 138 141 142 145 144 141 139 137 133 131 133 135 134 133 131 130 130 129 129 130 132 132 132 133 132 133 132 129 125
122 92 130 150 141 145 128 110 106 103 114 123 106 126 146 138 124 121 124 126 138 144 150 156 152 154 153 151 146 142 140 143 143 142 140 134 132 136 140 143 143 143 143 142 142 143 143 140 141
115 125 166 170 155 146 131 124 121 104 105 106 109 117 132 131 128 129 138 147 151 154 161 161 159 157 161 158 150 153 149 151 154 156 154 150 152 157 156 158 158 158 155 154 156 157 157 161 158
120 139 148 135 139 132 126 122 109 118 126 140 141 142 141 134 131 134 141 147 153 157 159 166 166 162 160 151 154 162 163 164 167 172 179 172 167 161 151 152 160 165 168 169 168 175 186 188 186
111 130 130 133 127 126 133 123 114 128 150 149 145 144 141 139 143 145 142 144 140 138 144 150 150 147 151 150 160 166 168 172 179 184 182 168 156 154 154 156 170 172 176 172 176 186 198 218 218
107 120 120 127 118 124 122 120 118 128 139 140 141 142 145 147 147 149 146 141 134 136 141 143 140 138 138 136 145 147 163 170 169 166 170 162 154 160 162 171 176 184 188 184 181 194 200 206 213
145 117 112 122 115 120 121 121 112 142 141 141 145 150 154 151 150 147 143 140 140 142 145 143 138 137 132 132 133 143 158 156 152 157 162 158 159 160 158 165 172 184 187 190 187 195 190 225 163
108 95 85 123 119 131 115 115 145 157 150 148 152 156 159 157 151 153 156 151 150 147 143 144 142 135 134 132 134 144 153 146 146 162 154 146 153 158 156 159 169 185 182 174 161 167 159 150 155
76 82 98 255 139 149 119 161 175 163 156 157 161 163 161 159 156 157 156 152 149 145 143 148 146 140 142 138 135 132 138 145 153 160 153 149 154 158 150 149 171 167 144 142 146 149 137 138 134
48 118 182 260 204 156 125 168 188 175 164 166 167 165 161 158 159 161 159 157 154 151 147 143 139 147 152 144 132 130 128 133 141 144 151 155 154 156 148 153 173 150 132 139 162 141 143 142 155
196 173 199 210 212 158 154 180 181 181 174 174 169 164 163 167 171 167 161 156 151 148 145 142 141 150 148 136 119 104 97 117 128 141 159 164 161 161 153 157 165 145 134 136 142 146 136 153 163
158 160 194 223 188 164 180 180 184 182 179 177 171 169 170 177 174 163 160 156 149 146 145 148 148 160 150 143 141 141 155 164 168 177 171 170 166 164 157 149 149 144 145 161 154 142 126 123 120
154 178 196 229 170 166 171 201 192 182 187 185 177 177 175 173 167 164 164 163 161 161 160 158 162 167 167 171 168 165 160 172 176 171 155 168 167 163 158 147 154 156 144 135 145 138 139 166 137
185 184 192 181 111 82 97 346 248 205 179 179 181 179 176 176 175 170 167 172 169 170 171 171 173 173 177 172 149 130 100 79 82 133 185 186 170 167 162 164 158 164 159 167 182 167 159 178 217
239 217 177 158 126 177 157 189 269 217 194 187 184 179 184 183 176 173 171 174 180 181 175 169 170 173 176 166 156 156 160 175 196 182 183 193 184 173 169 165 165 176 174 175 192 167 169 163 190
217 199 156 139 127 100 56 125 280 292 220 216 200 185 188 186 179 177 177 180 183 180 174 170 167 170 171 166 166 161 166 178 172 153 155 180 201 181 170 164 162 172 179 183 181 165 164 170 179
152 83 66 65 81 94 240 146 254 220 218 217 195 185 189 186 181 176 178 173 174 175 171 168 168 176 176 173 170 168 172 169 155 151 154 167 177 175 167 154 156 168 174 178 183 177 168 174 173
67 87 48 9 27 236 252 141 245 242 226 206 195 190 190 185 178 174 174 173 175 174 174 172 174 182 181 176 176 173 172 167 167 169 173 169 169 190 199 174 174 181 183 181 175 165 175 174 172
201 136 155 188 200 244 309 240 260 251 221 192 188 180 183 184 184 179 180 179 179 177 176 174 180 186 184 180 181 176 168 164 167 171 172 174 180 193 189 164 172 178 171 159 151 156 185 161 176
183 169 164 136 125 101 282 278 301 298 127 157 165 161 180 186 186 183 181 182 179 179 180 180 183 187 186 183 176 173 169 163 167 168 164 166 175 178 167 157 160 168 157 147 145 146 183 170 188
164 157 98 114 139 171 270 254 243 245 200 189 173 173 180 181 183 180 182 182 179 180 181 179 181 186 186 181 178 180 178 171 163 156 164 169 176 171 157 155 160 163 153 140 127 120 138 136 210
149 108 110 118 144 148 197 261 229 203 190 181 181 184 178 176 172 176 180 181 178 175 176 175 174 176 178 177 175 167 166 161 153 155 161 159 153 153 159 161 152 146 141 133 130 136 126 118 87
177 175 145 147 189 156 159 256 249 192 182 177 174 177 173 172 166 170 176 177 176 179 179 177 177 177 180 177 169 168 165 161 160 163 168 157 150 153 156 145 136 138 134 131 137 150 135 135 133
Height
1506 1506 1506 1507 1511 1520 1523 1517 1510 1510 1512 1513 1513 1514 1517 1521 1526 1535 1533 1532 1532 1531 1530 1530 1530 1529 1528 1527 1526 1525 1525 1524 1524 1524 1524 1524 1525 1525 1526 1527 1527 1528 1530 1531 1533 1535 1537 1538 1540
1506 1506 1508 1509 1519 1534 1528 1515 1513 1512 1515 1514 1516 1518 1520 1524 1527 1530 1531 1533 1533 1532 1532 1531 1531 1530 1529 1528 1528 1527 1526 1526 1526 1526 1526 1527 1528 1528 1529 1529 1530 1531 1532 1534 1536 1537 1539 1541 1542
1507 1507 1510 1513 1523 1530 1526 1515 1513 1515 1515 1514 1518 1521 1523 1527 1529 1530 1532 1533 1533 1533 1533 1533 1532 1531 1531 1530 1529 1529 1528 1528 1528 1528 1529 1529 1530 1531 1531 1532 1533 1534 1535 1537 1538 1540 1541 1543 1545
1508 1509 1511 1519 1523 1517 1514 1513 1512 1515 1517 1518 1519 1524 1527 1530 1530 1531 1533 1534 1534 1534 1534 1534 1534 1533 1532 1532 1531 1531 1530 1530 1531 1531 1531 1532 1533 1533 1534 1535 1536 1537 1538 1539 1541 1542 1544 1546 1547
1508 1510 1517 1525 1521 1515 1512 1512 1513 1515 1519 1521 1521 1526 1530 1532 1531 1532 1534 1535 1535 1535 1535 1535 1535 1535 1534 1534 1533 1533 1533 1533 1533 1534 1534 1535 1535 1536 1537 1537 1538 1539 1540 1542 1543 1544 1546 1547 1549
1508 1511 1528 1532 1522 1515 1514 1514 1515 1519 1522 1524 1525 1528 1533 1534 1533 1534 1536 1537 1537 1536 1537 1537 1537 1537 1536 1536 1535 1535 1535 1536 1536 1536 1537 1538 1538 1539 1540 1540 1541 1542 1543 1544 1545 1547 1548 1549 1551
1509 1515 1525 1525 1523 1519 1516 1515 1516 1520 1523 1525 1526 1529 1534 1535 1535 1536 1537 1538 1538 1538 1538 1538 1539 1538 1538 1538 1538 1538 1537 1538 1538 1539 1539 1540 1541 1542 1542 1543 1544 1544 1546 1547 1548 1549 1550 1551 1553
1506 1513 1522 1523 1523 1521 1516 1515 1517 1519 1523 1526 1527 1529 1533 1536 1537 1538 1539 1539 1540 1540 1540 1540 1540 1540 1540 1540 1540 1540 1540 1540 1541 1541 1542 1543 1543 1544 1545 1546 1547 1547 1548 1549 1550 1551 1552 1553 1554
1506 1517 1527 1522 1521 1519 1515 1516 1520 1521 1523 1526 1527 1528 1532 1535 1537 1538 1540 1541 1541 1542 1542 1542 1542 1542 1542 1542 1542 1542 1542 1543 1543 1544 1544 1545 1546 1546 1547 1548 1549 1550 1551 1551 1552 1553 1554 1555 1556
1504 1518 1517 1511 1511 1514 1515 1516 1520 1524 1525 1528 1530 1532 1534 1536 1538 1539 1540 1541 1542 1542 1543 1543 1543 1543 1544 1544 1544 1544 1545 1545 1545 1546 1546 1547 1548 1549 1549 1550 1551 1551 1552 1553 1554 1555 1556 1557 1558
1502 1509 1508 1508 1509 1512 1516 1518 1520 1524 1527 1528 1529 1532 1535 1537 1538 1539 1540 1541 1542 1543 1543 1544 1544 1544 1545 1545 1545 1546 1546 1546 1547 1547 1548 1549 1549 1550 1551 1551 1552 1553 1554 1554 1555 1556 1557 1558 1559
1501 1504 1506 1508 1510 1513 1516 1519 1522 1523 1527 1528 1529 1532 1534 1536 1538 1539 1540 1541 1542 1543 1544 1544 1545 1545 1545 1546 1546 1547 1547 1548 1548 1548 1549 1550 1550 1551 1552 1552 1553 1554 1555 1555 1556 1557 1558 1559 1559
1503 1506 1507 1509 1511 1514 1517 1520 1522 1525 1528 1530 1532 1534 1535 1537 1538 1539 1540 1541 1542 1543 1544 1545 1545 1546 1546 1547 1547 1547 1548 1548 1549 1549 1550 1550 1551 1552 1552 1553 1554 1555 1555 1556 1557 1557 1558 1558 1559
1505 1506 1508 1510 1513 1516 1518 1522 1524 1528 1529 1531 1533 1535 1536 1537 1538 1540 1541 1541 1542 1543 1544 1545 1545 1546 1546 1547 1547 1547 1548 1548 1549 1550 1550 1551 1551 1552 1553 1553 1554 1555 1556 1556 1557 1557 1558 1559 1559
1505 1508 1512 1512 1514 1518 1520 1526 1525 1527 1529 1531 1533 1535 1537 1538 1538 1539 1540 1541 1542 1543 1544 1545 1545 1546 1546 1546 1547 1547 1548 1548 1549 1550 1550 1551 1552 1552 1553 1553 1554 1555 1556 1556 1556 1557 1558 1558 1559
1508 1516 1524 1517 1514 1518 1524 1535 1526 1527 1528 1531 1533 1535 1536 1538 1538 1539 1540 1541 1542 1543 1544 1544 1545 1545 1546 1546 1546 1547 1548 1548 1549 1549 1550 1551 1551 1552 1552 1553 1554 1554 1555 1556 1556 1557 1557 1558 1558
1520 1528 1528 1521 1514 1516 1522 1531 1526 1527 1528 1530 1532 1534 1535 1537 1538 1539 1540 1541 1542 1542 1543 1544 1544 1545 1545 1546 1546 1547 1547 1548 1549 1549 1550 1550 1551 1552 1552 1553 1553 1554 1554 1555 1556 1556 1557 1557 1558
1528 1529 1525 1523 1515 1516 1522 1525 1523 1525 1527 1528 1531 1532 1534 1536 1537 1539 1540 1541 1542 1542 1543 1543 1544 1544 1545 1545 1546 1547 1547 1548 1548 1549 1549 1550 1550 1551 1551 1552 1552 1553 1553 1554 1554 1555 1556 1556 1557
1511 1519 1523 1517 1511 1517 1521 1523 1523 1523 1526 1528 1530 1531 1533 1535 1536 1538 1540 1541 1542 1542 1543 1543 1543 1544 1544 1545 1545 1546 1546 1547 1548 1548 1548 1549 1550 1550 1551 1551 1551 1552 1553 1553 1553 1554 1554 1555 1556
1507 1517 1520 1515 1510 1516 1522 1523 1521 1521 1523 1524 1526 1529 1531 1533 1536 1538 1539 1540 1541 1541 1542 1542 1543 1543 1544 1545 1545 1546 1546 1546 1547 1547 1548 1548 1549 1549 1550 1550 1551 1551 1552 1552 1552 1553 1553 1554 1554
1508 1514 1516 1518 1515 1516 1524 1531 1526 1523 1523 1525 1525 1527 1529 1530 1533 1535 1537 1538 1540 1540 1541 1542 1542 1543 1543 1544 1545 1545 1545 1545 1546 1546 1547 1547 1548 1548 1549 1549 1550 1550 1551 1551 1551 1552 1552 1552 1553
1512 1500 1503 1510 1523 1534 1530 1549 1533 1526 1525 1524 1525 1526 1528 1529 1531 1533 1535 1537 1538 1540 1540 1541 1542 1542 1543 1543 1544 1544 1544 1544 1545 1546 1546 1547 1547 1548 1548 1549 1549 1549 1549 1550 1550 1550 1551 1551 1551
1500 1494 1500 1508 1522 1535 1534 1545 1540 1528 1528 1523 1522 1524 1525 1527 1528 1531 1533 1534 1537 1539 1540 1541 1542 1542 1542 1543 1543 1544 1544 1544 1545 1545 1546 1546 1547 1547 1548 1548 1548 1548 1548 1548 1548 1549 1549 1549 1550
1491 1498 1507 1517 1529 1547 1538 1543 1542 1529 1524 1521 1519 1521 1522 1524 1526 1529 1531 1533 1535 1537 1539 1540 1541 1541 1542 1542 1543 1543 1543 1544 1544 1545 1545 1546 1546 1546 1547 1547 1547 1547 1547 1547 1547 1547 1547 1547 1548
1494 1517 1539 1544 1554 1552 1536 1539 1536 1517 1513 1513 1514 1517 1519 1521 1524 1526 1529 1531 1533 1535 1537 1538 1540 1540 1541 1542 1542 1542 1543 1543 1544 1544 1545 1545 1545 1546 1546 1546 1546 1545 1546 1545 1545 1546 1545 1546 1546
1497 1512 1539 1552 1557 1553 1539 1541 1524 1508 1506 1508 1511 1512 1515 1518 1521 1523 1526 1529 1531 1533 1535 1537 1538 1539 1540 1541 1542 1542 1543 1543 1543 1544 1544 1545 1545 1545 1545 1545 1544 1544 1544 1544 1544 1544 1544 1544 1545
1497 1507 1510 1532 1543 1553 1547 1534 1518 1506 1505 1506 1509 1511 1513 1516 1518 1521 1524 1526 1528 1531 1533 1534 1536 1537 1539 1540 1541 1542 1542 1542 1543 1543 1543 1544 1544 1544 1544 1543 1543 1543 1543 1543 1543 1542 1543 1543 1543
1485 1495 1515 1531 1549 1558 1549 1540 1532 1514 1509 1506 1508 1510 1512 1514 1517 1520 1522 1524 1526 1529 1531 1533 1534 1536 1537 1539 1540 1541 1541 1542 1542 1542 1543 1543 1543 1543 1543 1542 1541 1541 1541 1541 1541 1541 1541 1541 1541
1490 1497 1510 1527 1532 1551 1557 1542 1509 1507 1505 1506 1506 1508 1511 1513 1515 1518 1521 1523 1525 1527 1529 1531 1532 1534 1536 1537 1538 1539 1540 1541 1541 1542 1542 1542 1542 1542 1541 1541 1540 1539 1539 1539 1539 1539 1539 1539 1539
1483 1492 1505 1524 1532 1536 1543 1535 1498 1499 1500 1502 1504 1508 1510 1512 1514 1516 1518 1521 1523 1525 1527 1529 1531 1532 1534 1536 1537 1538 1539 1540 1540 1540 1541 1541 1541 1541 1541 1540 1539 1539 1538 1538 1538 1538 1538 1538 1537